Year,Month,Day,Hour,Minute,Value (Times are PST for temperature in C)
2014,08,03,00,00,14.30
2014,08,03,00,01,14.20
2014,08,03,00,02,14.20
2014,08,03,00,03,14.20
2014,08,03,00,04,14.20
2014,08,03,00,05,14.20
2014,08,03,00,06,14.30
2014,08,03,00,07,14.30
2014,08,03,00,08,14.30
2014,08,03,00,09,14.20
2014,08,03,00,10,14.20
2014,08,03,00,11,14.20
2014,08,03,00,12,14.20
2014,08,03,00,13,14.20
2014,08,03,00,14,14.20
2014,08,03,00,15,14.20
2014,08,03,00,16,14.20
2014,08,03,00,17,14.20
2014,08,03,00,18,14.20
2014,08,03,00,19,14.20
2014,08,03,00,20,14.20
2014,08,03,00,21,14.20
2014,08,03,00,22,14.20
2014,08,03,00,23,14.20
2014,08,03,00,24,14.10
2014,08,03,00,25,14.10
2014,08,03,00,26,14.00
2014,08,03,00,27,14.00
2014,08,03,00,28,14.00
2014,08,03,00,29,13.90
2014,08,03,00,30,13.90
2014,08,03,00,31,13.90
2014,08,03,00,32,13.80
2014,08,03,00,33,13.80
2014,08,03,00,34,13.80
2014,08,03,00,35,13.80
2014,08,03,00,36,13.80
2014,08,03,00,37,13.80
2014,08,03,00,38,13.80
2014,08,03,00,39,13.80
2014,08,03,00,40,13.80
2014,08,03,00,41,13.80
2014,08,03,00,42,13.80
2014,08,03,00,43,13.80
2014,08,03,00,44,13.80
2014,08,03,00,45,13.80
2014,08,03,00,46,13.80
2014,08,03,00,47,13.80
2014,08,03,00,48,13.80
2014,08,03,00,49,13.70
2014,08,03,00,50,13.70
2014,08,03,00,51,13.70
2014,08,03,00,52,13.70
2014,08,03,00,53,13.80
2014,08,03,00,54,13.80
2014,08,03,00,55,13.80
2014,08,03,00,56,13.80
2014,08,03,00,57,13.80
2014,08,03,00,58,13.80
2014,08,03,00,59,13.80
2014,08,03,01,00,13.80
2014,08,03,01,01,13.80
2014,08,03,01,02,13.80
2014,08,03,01,03,13.80
2014,08,03,01,04,13.80
2014,08,03,01,05,13.90
2014,08,03,01,06,13.90
2014,08,03,01,07,13.90
2014,08,03,01,08,13.90
2014,08,03,01,09,13.90
2014,08,03,01,10,14.00
2014,08,03,01,11,14.00
2014,08,03,01,12,14.00
2014,08,03,01,13,14.00
2014,08,03,01,14,14.00
2014,08,03,01,15,14.00
2014,08,03,01,16,14.00
2014,08,03,01,17,14.00
2014,08,03,01,18,14.00
2014,08,03,01,19,14.00
2014,08,03,01,20,14.00
2014,08,03,01,21,14.00
2014,08,03,01,22,14.00
2014,08,03,01,23,14.00
2014,08,03,01,24,14.00
2014,08,03,01,25,14.10
2014,08,03,01,26,14.10
2014,08,03,01,27,14.10
2014,08,03,01,28,14.20
2014,08,03,01,29,14.20
2014,08,03,01,30,14.20
2014,08,03,01,31,14.20
2014,08,03,01,32,14.20
2014,08,03,01,33,14.10
2014,08,03,01,34,14.10
2014,08,03,01,35,14.10
2014,08,03,01,36,14.10
2014,08,03,01,37,14.10
2014,08,03,01,38,14.10
2014,08,03,01,39,14.10
2014,08,03,01,40,14.10
2014,08,03,01,41,14.20
2014,08,03,01,42,14.20
2014,08,03,01,43,14.20
2014,08,03,01,44,14.20
2014,08,03,01,45,14.20
2014,08,03,01,46,14.20
2014,08,03,01,47,14.20
2014,08,03,01,48,14.20
2014,08,03,01,49,14.20
2014,08,03,01,50,14.20
2014,08,03,01,51,14.20
2014,08,03,01,52,14.20
2014,08,03,01,53,14.20
2014,08,03,01,54,14.20
2014,08,03,01,55,14.20
2014,08,03,01,56,14.20
2014,08,03,01,57,14.20
2014,08,03,01,58,14.20
2014,08,03,01,59,14.20
2014,08,03,02,00,14.20
2014,08,03,02,01,14.20
2014,08,03,02,02,14.20
2014,08,03,02,03,14.20
2014,08,03,02,04,14.20
2014,08,03,02,05,14.20
2014,08,03,02,06,14.20
2014,08,03,02,07,14.20
2014,08,03,02,08,14.20
2014,08,03,02,09,14.20
2014,08,03,02,10,14.20
2014,08,03,02,11,14.20
2014,08,03,02,12,14.20
2014,08,03,02,13,14.20
2014,08,03,02,14,14.30
2014,08,03,02,15,14.30
2014,08,03,02,16,14.30
2014,08,03,02,17,14.30
2014,08,03,02,18,14.30
2014,08,03,02,19,14.40
2014,08,03,02,20,14.40
2014,08,03,02,21,14.40
2014,08,03,02,22,14.40
2014,08,03,02,23,14.40
2014,08,03,02,24,14.40
2014,08,03,02,25,14.40
2014,08,03,02,26,14.40
2014,08,03,02,27,14.40
2014,08,03,02,28,14.40
2014,08,03,02,29,14.40
2014,08,03,02,30,14.40
2014,08,03,02,31,14.40
2014,08,03,02,32,14.40
2014,08,03,02,33,14.40
2014,08,03,02,34,14.40
2014,08,03,02,35,14.40
2014,08,03,02,36,14.40
2014,08,03,02,37,14.40
2014,08,03,02,38,14.40
2014,08,03,02,39,14.40
2014,08,03,02,40,14.40
2014,08,03,02,41,14.40
2014,08,03,02,42,14.40
2014,08,03,02,43,14.40
2014,08,03,02,44,14.40
2014,08,03,02,45,14.40
2014,08,03,02,46,14.40
2014,08,03,02,47,14.40
2014,08,03,02,48,14.40
2014,08,03,02,49,14.40
2014,08,03,02,50,14.40
2014,08,03,02,51,14.40
2014,08,03,02,52,14.40
2014,08,03,02,53,14.40
2014,08,03,02,54,14.40
2014,08,03,02,55,14.30
2014,08,03,02,56,14.30
2014,08,03,02,57,14.30
2014,08,03,02,58,14.30
2014,08,03,02,59,14.30
2014,08,03,03,00,14.30
2014,08,03,03,01,14.30
2014,08,03,03,02,14.20
2014,08,03,03,03,14.20
2014,08,03,03,04,14.20
2014,08,03,03,05,14.20
2014,08,03,03,06,14.20
2014,08,03,03,07,14.20
2014,08,03,03,08,14.20
2014,08,03,03,09,14.30
2014,08,03,03,10,14.30
2014,08,03,03,11,14.30
2014,08,03,03,12,14.30
2014,08,03,03,13,14.30
2014,08,03,03,14,14.30
2014,08,03,03,15,14.30
2014,08,03,03,16,14.30
2014,08,03,03,17,14.30
2014,08,03,03,18,14.30
2014,08,03,03,19,14.30
2014,08,03,03,20,14.30
2014,08,03,03,21,14.30
2014,08,03,03,22,14.30
2014,08,03,03,23,14.30
2014,08,03,03,24,14.30
2014,08,03,03,25,14.30
2014,08,03,03,26,14.30
2014,08,03,03,27,14.30
2014,08,03,03,28,14.30
2014,08,03,03,29,14.30
2014,08,03,03,30,14.20
2014,08,03,03,31,14.20
2014,08,03,03,32,14.20
2014,08,03,03,33,14.20
2014,08,03,03,34,14.20
2014,08,03,03,35,14.20
2014,08,03,03,36,14.20
2014,08,03,03,37,14.20
2014,08,03,03,38,14.20
2014,08,03,03,39,14.20
2014,08,03,03,40,14.20
2014,08,03,03,41,14.20
2014,08,03,03,42,14.10
2014,08,03,03,43,14.10
2014,08,03,03,44,14.10
2014,08,03,03,45,14.10
2014,08,03,03,46,14.10
2014,08,03,03,47,14.00
2014,08,03,03,48,14.00
2014,08,03,03,49,14.00
2014,08,03,03,50,13.90
2014,08,03,03,51,13.90
2014,08,03,03,52,13.90
2014,08,03,03,53,13.90
2014,08,03,03,54,13.80
2014,08,03,03,55,13.80
2014,08,03,03,56,13.80
2014,08,03,03,57,13.80
2014,08,03,03,58,13.80
2014,08,03,03,59,13.70
2014,08,03,04,00,13.70
2014,08,03,04,01,13.70
2014,08,03,04,02,13.70
2014,08,03,04,03,13.70
2014,08,03,04,04,13.70
2014,08,03,04,05,13.60
2014,08,03,04,06,13.60
2014,08,03,04,07,13.60
2014,08,03,04,08,13.50
2014,08,03,04,09,13.50
2014,08,03,04,10,13.50
2014,08,03,04,11,13.40
2014,08,03,04,12,13.40
2014,08,03,04,13,13.40
2014,08,03,04,14,13.40
2014,08,03,04,15,13.40
2014,08,03,04,16,13.30
2014,08,03,04,17,13.30
2014,08,03,04,18,13.30
2014,08,03,04,19,13.30
2014,08,03,04,20,13.30
2014,08,03,04,21,13.30
2014,08,03,04,22,13.30
2014,08,03,04,23,13.30
2014,08,03,04,24,13.30
2014,08,03,04,25,13.30
2014,08,03,04,26,13.30
2014,08,03,04,27,13.30
2014,08,03,04,28,13.30
2014,08,03,04,29,13.30
2014,08,03,04,30,13.30
2014,08,03,04,31,13.30
2014,08,03,04,32,13.30
2014,08,03,04,33,13.30
2014,08,03,04,34,13.30
2014,08,03,04,35,13.30
2014,08,03,04,36,13.30
2014,08,03,04,37,13.30
2014,08,03,04,38,13.30
2014,08,03,04,39,13.30
2014,08,03,04,40,13.30
2014,08,03,04,41,13.30
2014,08,03,04,42,13.30
2014,08,03,04,43,13.30
2014,08,03,04,44,13.30
2014,08,03,04,45,13.30
2014,08,03,04,46,13.30
2014,08,03,04,47,13.30
2014,08,03,04,48,13.30
2014,08,03,04,49,13.30
2014,08,03,04,50,13.30
2014,08,03,04,51,13.30
2014,08,03,04,52,13.30
2014,08,03,04,53,13.30
2014,08,03,04,54,13.30
2014,08,03,04,55,13.20
2014,08,03,04,56,13.20
2014,08,03,04,57,13.20
2014,08,03,04,58,13.20
2014,08,03,04,59,13.20
2014,08,03,05,00,13.20
2014,08,03,05,01,13.20
2014,08,03,05,02,13.20
2014,08,03,05,03,13.20
2014,08,03,05,04,13.20
2014,08,03,05,05,13.20
2014,08,03,05,06,13.20
2014,08,03,05,07,13.20
2014,08,03,05,08,13.20
2014,08,03,05,09,13.20
2014,08,03,05,10,13.20
2014,08,03,05,11,13.20
2014,08,03,05,12,13.20
2014,08,03,05,13,13.20
2014,08,03,05,14,13.20
2014,08,03,05,15,13.30
2014,08,03,05,16,13.30
2014,08,03,05,17,13.30
2014,08,03,05,18,13.30
2014,08,03,05,19,13.20
2014,08,03,05,20,13.20
2014,08,03,05,21,13.20
2014,08,03,05,22,13.20
2014,08,03,05,23,13.20
2014,08,03,05,24,13.20
2014,08,03,05,25,13.20
2014,08,03,05,26,13.20
2014,08,03,05,27,13.20
2014,08,03,05,28,13.20
2014,08,03,05,29,13.20
2014,08,03,05,30,13.20
2014,08,03,05,31,13.20
2014,08,03,05,32,13.20
2014,08,03,05,33,13.20
2014,08,03,05,34,13.20
2014,08,03,05,35,13.20
2014,08,03,05,36,13.20
2014,08,03,05,37,13.20
2014,08,03,05,38,13.20
2014,08,03,05,39,13.20
2014,08,03,05,40,13.20
2014,08,03,05,41,13.20
2014,08,03,05,42,13.20
2014,08,03,05,43,13.20
2014,08,03,05,44,13.20
2014,08,03,05,45,13.20
2014,08,03,05,46,13.20
2014,08,03,05,47,13.20
2014,08,03,05,48,13.20
2014,08,03,05,49,13.20
2014,08,03,05,50,13.20
2014,08,03,05,51,13.20
2014,08,03,05,52,13.20
2014,08,03,05,53,13.20
2014,08,03,05,54,13.20
2014,08,03,05,55,13.20
2014,08,03,05,56,13.30
2014,08,03,05,57,13.30
2014,08,03,05,58,13.30
2014,08,03,05,59,13.30
2014,08,03,06,00,13.30
2014,08,03,06,01,13.30
2014,08,03,06,02,13.30
2014,08,03,06,03,13.30
2014,08,03,06,04,13.30
2014,08,03,06,05,13.30
2014,08,03,06,06,13.30
2014,08,03,06,07,13.30
2014,08,03,06,08,13.30
2014,08,03,06,09,13.30
2014,08,03,06,10,13.30
2014,08,03,06,11,13.30
2014,08,03,06,12,13.30
2014,08,03,06,13,13.30
2014,08,03,06,14,13.30
2014,08,03,06,15,13.30
2014,08,03,06,16,13.30
2014,08,03,06,17,13.30
2014,08,03,06,18,13.30
2014,08,03,06,19,13.30
2014,08,03,06,20,13.30
2014,08,03,06,21,13.30
2014,08,03,06,22,13.40
2014,08,03,06,23,13.40
2014,08,03,06,24,13.40
2014,08,03,06,25,13.40
2014,08,03,06,26,13.50
2014,08,03,06,27,13.50
2014,08,03,06,28,13.50
2014,08,03,06,29,13.50
2014,08,03,06,30,13.60
2014,08,03,06,31,13.60
2014,08,03,06,32,13.60
2014,08,03,06,33,13.70
2014,08,03,06,34,13.70
2014,08,03,06,35,13.70
2014,08,03,06,36,13.80
2014,08,03,06,37,13.80
2014,08,03,06,38,13.90
2014,08,03,06,39,13.90
2014,08,03,06,40,14.00
2014,08,03,06,41,14.00
2014,08,03,06,42,14.10
2014,08,03,06,43,14.10
2014,08,03,06,44,14.20
2014,08,03,06,45,14.20
2014,08,03,06,46,14.20
2014,08,03,06,47,14.30
2014,08,03,06,48,14.40
2014,08,03,06,49,14.50
2014,08,03,06,50,14.60
2014,08,03,06,51,14.60
2014,08,03,06,52,14.70
2014,08,03,06,53,14.90
2014,08,03,06,54,15.00
2014,08,03,06,55,15.10
2014,08,03,06,56,15.20
2014,08,03,06,57,15.30
2014,08,03,06,58,15.30
2014,08,03,06,59,15.30
2014,08,03,07,00,15.30
2014,08,03,07,01,15.30
2014,08,03,07,02,15.30
2014,08,03,07,03,15.30
2014,08,03,07,04,15.30
2014,08,03,07,05,15.30
2014,08,03,07,06,15.40
2014,08,03,07,07,15.40
2014,08,03,07,08,15.50
2014,08,03,07,09,15.60
2014,08,03,07,10,15.60
2014,08,03,07,11,15.70
2014,08,03,07,12,15.80
2014,08,03,07,13,15.90
2014,08,03,07,14,16.10
2014,08,03,07,15,16.30
2014,08,03,07,16,16.40
2014,08,03,07,17,16.60
2014,08,03,07,18,16.70
2014,08,03,07,19,16.90
2014,08,03,07,20,17.10
2014,08,03,07,21,17.20
2014,08,03,07,22,17.30
2014,08,03,07,23,17.50
2014,08,03,07,24,17.60
2014,08,03,07,25,17.70
2014,08,03,07,26,17.80
2014,08,03,07,27,17.90
2014,08,03,07,28,18.10
2014,08,03,07,29,18.20
2014,08,03,07,30,18.30
2014,08,03,07,31,18.40
2014,08,03,07,32,18.40
2014,08,03,07,33,18.30
2014,08,03,07,34,18.20
2014,08,03,07,35,18.20
2014,08,03,07,36,18.20
2014,08,03,07,37,18.20
2014,08,03,07,38,18.20
2014,08,03,07,39,18.20
2014,08,03,07,40,18.20
2014,08,03,07,41,18.20
2014,08,03,07,42,18.10
2014,08,03,07,43,18.10
2014,08,03,07,44,18.10
2014,08,03,07,45,18.10
2014,08,03,07,46,18.10
2014,08,03,07,47,18.00
2014,08,03,07,48,17.90
2014,08,03,07,49,17.90
2014,08,03,07,50,17.90
2014,08,03,07,51,17.80
2014,08,03,07,52,17.80
2014,08,03,07,53,17.90
2014,08,03,07,54,17.90
2014,08,03,07,55,18.00
2014,08,03,07,56,18.10
2014,08,03,07,57,18.10
2014,08,03,07,58,18.20
2014,08,03,07,59,18.30
2014,08,03,08,00,18.30
2014,08,03,08,01,18.40
2014,08,03,08,02,18.40
2014,08,03,08,03,18.40
2014,08,03,08,04,18.40
2014,08,03,08,05,18.40
2014,08,03,08,06,18.50
2014,08,03,08,07,18.60
2014,08,03,08,08,18.70
2014,08,03,08,09,18.90
2014,08,03,08,10,19.00
2014,08,03,08,11,19.10
2014,08,03,08,12,19.10
2014,08,03,08,13,19.20
2014,08,03,08,14,19.30
2014,08,03,08,15,19.40
2014,08,03,08,16,19.40
2014,08,03,08,17,19.40
2014,08,03,08,18,19.40
2014,08,03,08,19,19.50
2014,08,03,08,20,19.50
2014,08,03,08,21,19.60
2014,08,03,08,22,19.60
2014,08,03,08,23,19.60
2014,08,03,08,24,19.60
2014,08,03,08,25,19.60
2014,08,03,08,26,19.70
2014,08,03,08,27,19.80
2014,08,03,08,28,19.90
2014,08,03,08,29,20.10
2014,08,03,08,30,20.20
2014,08,03,08,31,20.30
2014,08,03,08,32,20.20
2014,08,03,08,33,20.20
2014,08,03,08,34,20.30
2014,08,03,08,35,20.30
2014,08,03,08,36,20.40
2014,08,03,08,37,20.50
2014,08,03,08,38,20.60
2014,08,03,08,39,20.60
2014,08,03,08,40,20.70
2014,08,03,08,41,20.80
2014,08,03,08,42,20.80
2014,08,03,08,43,20.80
2014,08,03,08,44,20.80
2014,08,03,08,45,20.80
2014,08,03,08,46,20.70
2014,08,03,08,47,20.70
2014,08,03,08,48,20.60
2014,08,03,08,49,20.50
2014,08,03,08,50,20.50
2014,08,03,08,51,20.50
2014,08,03,08,52,20.40
2014,08,03,08,53,20.40
2014,08,03,08,54,20.40
2014,08,03,08,55,20.50
2014,08,03,08,56,20.50
2014,08,03,08,57,20.50
2014,08,03,08,58,20.60
2014,08,03,08,59,20.70
2014,08,03,09,00,20.80
2014,08,03,09,01,20.90
2014,08,03,09,02,21.00
2014,08,03,09,03,21.00
2014,08,03,09,04,21.00
2014,08,03,09,05,21.10
2014,08,03,09,06,21.00
2014,08,03,09,07,21.00
2014,08,03,09,08,21.00
2014,08,03,09,09,21.00
2014,08,03,09,10,20.90
2014,08,03,09,11,20.80
2014,08,03,09,12,20.80
2014,08,03,09,13,20.70
2014,08,03,09,14,20.70
2014,08,03,09,15,20.70
2014,08,03,09,16,20.70
2014,08,03,09,17,20.80
2014,08,03,09,18,20.70
2014,08,03,09,19,20.70
2014,08,03,09,20,20.80
2014,08,03,09,21,20.80
2014,08,03,09,22,20.80
2014,08,03,09,23,20.80
2014,08,03,09,24,20.80
2014,08,03,09,25,20.80
2014,08,03,09,26,20.90
2014,08,03,09,27,21.00
2014,08,03,09,28,21.10
2014,08,03,09,29,21.20
2014,08,03,09,30,21.20
2014,08,03,09,31,21.20
2014,08,03,09,32,21.10
2014,08,03,09,33,21.10
2014,08,03,09,34,21.10
2014,08,03,09,35,21.20
2014,08,03,09,36,21.20
2014,08,03,09,37,21.30
2014,08,03,09,38,21.30
2014,08,03,09,39,21.30
2014,08,03,09,40,21.30
2014,08,03,09,41,21.30
2014,08,03,09,42,21.30
2014,08,03,09,43,21.20
2014,08,03,09,44,21.10
2014,08,03,09,45,21.10
2014,08,03,09,46,21.10
2014,08,03,09,47,21.20
2014,08,03,09,48,21.30
2014,08,03,09,49,21.30
2014,08,03,09,50,21.40
2014,08,03,09,51,21.60
2014,08,03,09,52,21.60
2014,08,03,09,53,21.70
2014,08,03,09,54,21.70
2014,08,03,09,55,21.70
2014,08,03,09,56,21.70
2014,08,03,09,57,21.60
2014,08,03,09,58,21.60
2014,08,03,09,59,21.60
2014,08,03,10,00,21.50
2014,08,03,10,01,21.40
2014,08,03,10,02,21.40
2014,08,03,10,03,21.30
2014,08,03,10,04,21.30
2014,08,03,10,05,21.30
2014,08,03,10,06,21.40
2014,08,03,10,07,21.50
2014,08,03,10,08,21.50
2014,08,03,10,09,21.40
2014,08,03,10,10,21.40
2014,08,03,10,11,21.30
2014,08,03,10,12,21.30
2014,08,03,10,13,21.30
2014,08,03,10,14,21.30
2014,08,03,10,15,21.30
2014,08,03,10,16,21.40
2014,08,03,10,17,21.40
2014,08,03,10,18,21.40
2014,08,03,10,19,21.40
2014,08,03,10,20,21.40
2014,08,03,10,21,21.40
2014,08,03,10,22,21.30
2014,08,03,10,23,21.30
2014,08,03,10,24,21.30
2014,08,03,10,25,21.30
2014,08,03,10,26,21.30
2014,08,03,10,27,21.30
2014,08,03,10,28,21.30
2014,08,03,10,29,21.40
2014,08,03,10,30,21.50
2014,08,03,10,31,21.60
2014,08,03,10,32,21.70
2014,08,03,10,33,21.60
2014,08,03,10,34,21.50
2014,08,03,10,35,21.40
2014,08,03,10,36,21.20
2014,08,03,10,37,21.10
2014,08,03,10,38,21.00
2014,08,03,10,39,21.00
2014,08,03,10,40,21.00
2014,08,03,10,41,21.00
2014,08,03,10,42,21.00
2014,08,03,10,43,21.00
2014,08,03,10,44,21.10
2014,08,03,10,45,21.10
2014,08,03,10,46,21.20
2014,08,03,10,47,21.10
2014,08,03,10,48,21.20
2014,08,03,10,49,21.20
2014,08,03,10,50,21.30
2014,08,03,10,51,21.30
2014,08,03,10,52,21.40
2014,08,03,10,53,21.40
2014,08,03,10,54,21.40
2014,08,03,10,55,21.50
2014,08,03,10,56,21.60
2014,08,03,10,57,21.60
2014,08,03,10,58,21.60
2014,08,03,10,59,21.70
2014,08,03,11,00,21.80
2014,08,03,11,01,21.80
2014,08,03,11,02,21.80
2014,08,03,11,03,21.90
2014,08,03,11,04,21.90
2014,08,03,11,05,21.70
2014,08,03,11,06,21.60
2014,08,03,11,07,21.60
2014,08,03,11,08,21.60
2014,08,03,11,09,21.60
2014,08,03,11,10,21.70
2014,08,03,11,11,21.80
2014,08,03,11,12,21.90
2014,08,03,11,13,22.00
2014,08,03,11,14,22.10
2014,08,03,11,15,22.20
2014,08,03,11,16,22.30
2014,08,03,11,17,22.30
2014,08,03,11,18,22.30
2014,08,03,11,19,22.30
2014,08,03,11,20,22.30
2014,08,03,11,21,22.20
2014,08,03,11,22,22.20
2014,08,03,11,23,22.30
2014,08,03,11,24,22.40
2014,08,03,11,25,22.30
2014,08,03,11,26,22.20
2014,08,03,11,27,22.00
2014,08,03,11,28,22.00
2014,08,03,11,29,21.90
2014,08,03,11,30,21.90
2014,08,03,11,31,22.00
2014,08,03,11,32,22.00
2014,08,03,11,33,22.00
2014,08,03,11,34,22.00
2014,08,03,11,35,22.10
2014,08,03,11,36,22.10
2014,08,03,11,37,22.10
2014,08,03,11,38,22.20
2014,08,03,11,39,22.20
2014,08,03,11,40,22.30
2014,08,03,11,41,22.30
2014,08,03,11,42,22.40
2014,08,03,11,43,22.60
2014,08,03,11,44,22.70
2014,08,03,11,45,22.70
2014,08,03,11,46,22.80
2014,08,03,11,47,22.90
2014,08,03,11,48,22.90
2014,08,03,11,49,22.90
2014,08,03,11,50,22.80
2014,08,03,11,51,22.80
2014,08,03,11,52,22.70
2014,08,03,11,53,22.60
2014,08,03,11,54,22.60
2014,08,03,11,55,22.60
2014,08,03,11,56,22.70
2014,08,03,11,57,22.70
2014,08,03,11,58,22.80
2014,08,03,11,59,22.90
2014,08,03,12,00,23.00
2014,08,03,12,01,23.10
2014,08,03,12,02,23.10
2014,08,03,12,03,23.20
2014,08,03,12,04,23.30
2014,08,03,12,05,23.40
2014,08,03,12,06,23.60
2014,08,03,12,07,23.70
2014,08,03,12,08,23.80
2014,08,03,12,09,23.90
2014,08,03,12,10,23.90
2014,08,03,12,11,24.00
2014,08,03,12,12,24.10
2014,08,03,12,13,24.10
2014,08,03,12,14,24.10
2014,08,03,12,15,24.10
2014,08,03,12,16,24.10
2014,08,03,12,17,24.10
2014,08,03,12,18,24.10
2014,08,03,12,19,24.00
2014,08,03,12,20,24.00
2014,08,03,12,21,24.10
2014,08,03,12,22,24.10
2014,08,03,12,23,24.10
2014,08,03,12,24,24.00
2014,08,03,12,25,23.90
2014,08,03,12,26,23.90
2014,08,03,12,27,23.90
2014,08,03,12,28,23.90
2014,08,03,12,29,23.90
2014,08,03,12,30,23.90
2014,08,03,12,31,23.90
2014,08,03,12,32,24.00
2014,08,03,12,33,24.10
2014,08,03,12,34,24.20
2014,08,03,12,35,24.20
2014,08,03,12,36,24.30
2014,08,03,12,37,24.40
2014,08,03,12,38,24.40
2014,08,03,12,39,24.50
2014,08,03,12,40,24.50
2014,08,03,12,41,24.60
2014,08,03,12,42,24.70
2014,08,03,12,43,24.70
2014,08,03,12,44,24.70
2014,08,03,12,45,24.70
2014,08,03,12,46,24.70
2014,08,03,12,47,24.70
2014,08,03,12,48,24.70
2014,08,03,12,49,24.70
2014,08,03,12,50,24.80
2014,08,03,12,51,24.80
2014,08,03,12,52,24.90
2014,08,03,12,53,24.90
2014,08,03,12,54,24.90
2014,08,03,12,55,25.00
2014,08,03,12,56,25.10
2014,08,03,12,57,25.20
2014,08,03,12,58,25.30
2014,08,03,12,59,25.30
2014,08,03,13,00,25.40
2014,08,03,13,01,25.40
2014,08,03,13,02,25.40
2014,08,03,13,03,25.50
2014,08,03,13,04,25.50
2014,08,03,13,05,25.60
2014,08,03,13,06,25.60
2014,08,03,13,07,25.50
2014,08,03,13,08,25.40
2014,08,03,13,09,25.30
2014,08,03,13,10,25.20
2014,08,03,13,11,25.20
2014,08,03,13,12,25.20
2014,08,03,13,13,25.10
2014,08,03,13,14,25.10
2014,08,03,13,15,25.10
2014,08,03,13,16,25.10
2014,08,03,13,17,25.10
2014,08,03,13,18,25.20
2014,08,03,13,19,25.20
2014,08,03,13,20,25.20
2014,08,03,13,21,25.30
2014,08,03,13,22,25.40
2014,08,03,13,23,25.40
2014,08,03,13,24,25.50
2014,08,03,13,25,25.60
2014,08,03,13,26,25.60
2014,08,03,13,27,25.60
2014,08,03,13,28,25.60
2014,08,03,13,29,25.60
2014,08,03,13,30,25.60
2014,08,03,13,31,25.70
2014,08,03,13,32,25.70
2014,08,03,13,33,25.60
2014,08,03,13,34,25.60
2014,08,03,13,35,25.60
2014,08,03,13,36,25.50
2014,08,03,13,37,25.40
2014,08,03,13,38,25.40
2014,08,03,13,39,25.40
2014,08,03,13,40,25.50
2014,08,03,13,41,25.60
2014,08,03,13,42,25.70
2014,08,03,13,43,25.80
2014,08,03,13,44,25.90
2014,08,03,13,45,25.80
2014,08,03,13,46,25.90
2014,08,03,13,47,25.90
2014,08,03,13,48,25.90
2014,08,03,13,49,25.90
2014,08,03,13,50,26.00
2014,08,03,13,51,26.00
2014,08,03,13,52,26.00
2014,08,03,13,53,26.10
2014,08,03,13,54,26.30
2014,08,03,13,55,26.40
2014,08,03,13,56,26.40
2014,08,03,13,57,26.40
2014,08,03,13,58,26.40
2014,08,03,13,59,26.30
2014,08,03,14,00,26.30
2014,08,03,14,01,26.30
2014,08,03,14,02,26.30
2014,08,03,14,03,26.30
2014,08,03,14,04,26.20
2014,08,03,14,05,26.20
2014,08,03,14,06,26.20
2014,08,03,14,07,26.10
2014,08,03,14,08,26.20
2014,08,03,14,09,26.30
2014,08,03,14,10,26.40
2014,08,03,14,11,26.40
2014,08,03,14,12,26.40
2014,08,03,14,13,26.40
2014,08,03,14,14,26.40
2014,08,03,14,15,26.60
2014,08,03,14,16,26.60
2014,08,03,14,17,26.60
2014,08,03,14,18,26.60
2014,08,03,14,19,26.60
2014,08,03,14,20,26.60
2014,08,03,14,21,26.50
2014,08,03,14,22,26.40
2014,08,03,14,23,26.30
2014,08,03,14,24,26.30
2014,08,03,14,25,26.30
2014,08,03,14,26,26.50
2014,08,03,14,27,26.60
2014,08,03,14,28,26.70
2014,08,03,14,29,26.80
2014,08,03,14,30,26.90
2014,08,03,14,31,26.90
2014,08,03,14,32,26.80
2014,08,03,14,33,26.80
2014,08,03,14,34,26.90
2014,08,03,14,35,27.00
2014,08,03,14,36,27.10
2014,08,03,14,37,27.10
2014,08,03,14,38,27.10
2014,08,03,14,39,27.10
2014,08,03,14,40,27.10
2014,08,03,14,41,27.10
2014,08,03,14,42,27.10
2014,08,03,14,43,27.20
2014,08,03,14,44,27.30
2014,08,03,14,45,27.30
2014,08,03,14,46,27.30
2014,08,03,14,47,27.40
2014,08,03,14,48,27.40
2014,08,03,14,49,27.40
2014,08,03,14,50,27.50
2014,08,03,14,51,27.60
2014,08,03,14,52,27.50
2014,08,03,14,53,27.40
2014,08,03,14,54,27.40
2014,08,03,14,55,27.40
2014,08,03,14,56,27.50
2014,08,03,14,57,27.60
2014,08,03,14,58,27.60
2014,08,03,14,59,27.60
2014,08,03,15,00,27.50
2014,08,03,15,01,27.40
2014,08,03,15,02,27.30
2014,08,03,15,03,27.30
2014,08,03,15,04,27.30
2014,08,03,15,05,27.30
2014,08,03,15,06,27.30
2014,08,03,15,07,27.40
2014,08,03,15,08,27.40
2014,08,03,15,09,27.40
2014,08,03,15,10,27.40
2014,08,03,15,11,27.50
2014,08,03,15,12,27.60
2014,08,03,15,13,27.60
2014,08,03,15,14,27.60
2014,08,03,15,15,27.70
2014,08,03,15,16,27.80
2014,08,03,15,17,28.00
2014,08,03,15,18,28.00
2014,08,03,15,19,28.20
2014,08,03,15,20,28.20
2014,08,03,15,21,28.30
2014,08,03,15,22,28.30
2014,08,03,15,23,28.40
2014,08,03,15,24,28.40
2014,08,03,15,25,28.50
2014,08,03,15,26,28.50
2014,08,03,15,27,28.40
2014,08,03,15,28,28.50
2014,08,03,15,29,28.60
2014,08,03,15,30,28.60
2014,08,03,15,31,28.60
2014,08,03,15,32,28.70
2014,08,03,15,33,28.70
2014,08,03,15,34,28.60
2014,08,03,15,35,28.60
2014,08,03,15,36,28.60
2014,08,03,15,37,28.60
2014,08,03,15,38,28.50
2014,08,03,15,39,28.40
2014,08,03,15,40,28.40
2014,08,03,15,41,28.40
2014,08,03,15,42,28.50
2014,08,03,15,43,28.60
2014,08,03,15,44,28.60
2014,08,03,15,45,28.70
2014,08,03,15,46,28.80
2014,08,03,15,47,28.70
2014,08,03,15,48,28.70
2014,08,03,15,49,28.80
2014,08,03,15,50,28.80
2014,08,03,15,51,28.70
2014,08,03,15,52,28.60
2014,08,03,15,53,28.40
2014,08,03,15,54,28.30
2014,08,03,15,55,28.20
2014,08,03,15,56,28.00
2014,08,03,15,57,28.00
2014,08,03,15,58,28.00
2014,08,03,15,59,28.00
2014,08,03,16,00,28.10
2014,08,03,16,01,28.10
2014,08,03,16,02,28.20
2014,08,03,16,03,28.30
2014,08,03,16,04,28.50
2014,08,03,16,05,28.60
2014,08,03,16,06,28.80
2014,08,03,16,07,28.90
2014,08,03,16,08,29.10
2014,08,03,16,09,29.30
2014,08,03,16,10,29.20
2014,08,03,16,11,29.10
2014,08,03,16,12,29.10
2014,08,03,16,13,29.10
2014,08,03,16,14,29.10
2014,08,03,16,15,29.20
2014,08,03,16,16,29.10
2014,08,03,16,17,29.10
2014,08,03,16,18,29.10
2014,08,03,16,19,29.10
2014,08,03,16,20,29.10
2014,08,03,16,21,29.10
2014,08,03,16,22,29.10
2014,08,03,16,23,29.10
2014,08,03,16,24,29.10
2014,08,03,16,25,29.20
2014,08,03,16,26,29.30
2014,08,03,16,27,29.20
2014,08,03,16,28,29.20
2014,08,03,16,29,29.20
2014,08,03,16,30,29.20
2014,08,03,16,31,29.10
2014,08,03,16,32,29.10
2014,08,03,16,33,29.10
2014,08,03,16,34,29.20
2014,08,03,16,35,29.20
2014,08,03,16,36,29.20
2014,08,03,16,37,29.20
2014,08,03,16,38,29.20
2014,08,03,16,39,29.30
2014,08,03,16,40,29.30
2014,08,03,16,41,29.40
2014,08,03,16,42,29.40
2014,08,03,16,43,29.50
2014,08,03,16,44,29.50
2014,08,03,16,45,29.50
2014,08,03,16,46,29.50
2014,08,03,16,47,29.40
2014,08,03,16,48,29.40
2014,08,03,16,49,29.50
2014,08,03,16,50,29.50
2014,08,03,16,51,29.60
2014,08,03,16,52,29.60
2014,08,03,16,53,29.60
2014,08,03,16,54,29.60
2014,08,03,16,55,29.40
2014,08,03,16,56,29.30
2014,08,03,16,57,29.20
2014,08,03,16,58,29.30
2014,08,03,16,59,29.30
2014,08,03,17,00,29.30
2014,08,03,17,01,29.30
2014,08,03,17,02,29.30
2014,08,03,17,03,29.30
2014,08,03,17,04,29.40
2014,08,03,17,05,29.50
2014,08,03,17,06,29.60
2014,08,03,17,07,29.70
2014,08,03,17,08,29.80
2014,08,03,17,09,29.80
2014,08,03,17,10,30.00
2014,08,03,17,11,30.10
2014,08,03,17,12,30.10
2014,08,03,17,13,30.10
2014,08,03,17,14,30.20
2014,08,03,17,15,30.20
2014,08,03,17,16,30.20
2014,08,03,17,17,30.20
2014,08,03,17,18,30.20
2014,08,03,17,19,30.10